Location: Caltech
(34.1382°N, 118.1253°W)
Time: 05:38:25
(UTC-07:00)

FENGYUN 3A - Visible Passes

Search period start: 25 April 2018 00:00
Search period end: 05 May 2018 00:00
Orbit: 818 x 834 km, 98.4° (Epoch: 25 April)

Date Brightness Start Highest point End Pass type
(mag) Time Alt. Az. Time Alt. Az. Time Alt. Az.
25 Apr 6.5 20:25:21 10° SW 20:28:13 15° W 20:31:06 10° WNW visible
26 Apr 6.2 20:04:58 10° SW 20:09:07 23° W 20:13:16 10° NW visible
30 Apr 6.6 20:31:41 10° WSW 20:33:48 12° W 20:35:56 10° WNW visible
01 May 6.3 20:10:54 10° SW 20:14:41 20° W 20:18:30 10° NW visible
